Tracking 32136 objects as of 12-Nov-2025
HD Live streaming from Space Station
objects crossing your sky now

METEOR 1-17 DEB

Track METEOR 1-17 DEB now!
10-day predictions


NORAD ID: 57545
Int'l Code: 1974-025L
Perigee: 819.7 km
Apogee: 836.7 km
Inclination: 81.2 °
Period: 101.3 minutes
Semi major axis: 7199 km
RCS: Unknown
Launch date: April 24, 1974
Source: Commonwealth of Independent States (former USSR) (CIS)
Launch site: PLESETSK MISSILE AND SPACE COMPLEX (PKMTR)

Note: This is SATELLITE DEBRIS
Your satellite tracking list
Your tracking list is empty




NASA's NSSDC Master Catalog

Two Line Element Set (TLE):
1 57545U 74025L   25312.76803831  .00004491  00000-0  20551-2 0  9996
2 57545  81.2154 143.8329 0011809 136.8709 223.3395 14.21262929 76932
Source of the keplerian elements: AFSPC